UAL183 PGUM-RPLL

Flight info

Callsign UAL183
Flight time N/A
Altitude 36000
Route 13N140E 13N130E DCT NGA W9 AKDAP AKDAP3R
Aircraft B738/M-SDE2E3FGHIRWXY/LB1

Departure

Time 2026-04-21 16:00
Airport Antonio B. Won Pat International Airport (PGUM)

Arrival

Time N/A
Airport Ninoy Aquino International Airport (RPLL)
Time Latitude Longitude Altitude Speed Heading
2026-04-21 15:18 13.49390 144.80930 296 ft 0 kts 282°
2026-04-21 15:46 13.49390 144.80933 296 ft 3 kts 290°
2026-04-21 15:47 13.49381 144.80947 300 ft 4 kts 299°
2026-04-21 15:47 13.49367 144.80971 300 ft 4 kts 306°
2026-04-21 15:47 13.49350 144.80993 297 ft 4 kts 309°
2026-04-21 15:47 13.49334 144.81015 298 ft 4 kts 298°
2026-04-21 15:48 13.49328 144.81036 297 ft 2 kts 242°
2026-04-21 15:48 13.49329 144.81037 297 ft 1 kts 240°
2026-04-21 15:50 13.49318 144.81019 298 ft 5 kts 239°
2026-04-21 15:50 13.49294 144.80976 297 ft 8 kts 241°
2026-04-21 15:50 13.49270 144.80929 301 ft 7 kts 243°
2026-04-21 15:51 13.49247 144.80885 300 ft 7 kts 242°
2026-04-21 15:51 13.49224 144.80841 297 ft 7 kts 242°
2026-04-21 15:51 13.49202 144.80799 297 ft 7 kts 242°
2026-04-21 15:51 13.49180 144.80758 295 ft 6 kts 241°
2026-04-21 15:52 13.49166 144.80731 297 ft 6 kts 241°
2026-04-21 15:52 13.49145 144.80691 297 ft 6 kts 241°
2026-04-21 15:52 13.49124 144.80652 296 ft 7 kts 241°
2026-04-21 15:52 13.49073 144.80554 296 ft 17 kts 242°
2026-04-21 15:53 13.49013 144.80449 295 ft 17 kts 233°
2026-04-21 15:53 13.48937 144.80370 294 ft 13 kts 232°
2026-04-21 15:53 13.48901 144.80318 295 ft 13 kts 236°
2026-04-21 15:53 13.48856 144.80239 294 ft 13 kts 243°
2026-04-21 15:54 13.48819 144.80158 293 ft 12 kts 245°
2026-04-21 15:54 13.48782 144.80079 295 ft 12 kts 243°
2026-04-21 15:54 13.48743 144.80004 293 ft 12 kts 242°
2026-04-21 15:54 13.48705 144.79932 291 ft 11 kts 243°
2026-04-21 15:55 13.48672 144.79852 288 ft 14 kts 246°
2026-04-21 15:55 13.48633 144.79756 288 ft 14 kts 248°
2026-04-21 15:55 13.48597 144.79661 290 ft 14 kts 250°
2026-04-21 15:55 13.48554 144.79575 287 ft 13 kts 243°
2026-04-21 15:56 13.48501 144.79463 285 ft 21 kts 244°
2026-04-21 15:56 13.48440 144.79328 285 ft 20 kts 244°
2026-04-21 15:56 13.48385 144.79208 284 ft 18 kts 246°
2026-04-21 15:56 13.48336 144.79098 284 ft 16 kts 243°
2026-04-21 15:57 13.48287 144.78997 284 ft 15 kts 243°
2026-04-21 15:57 13.48243 144.78899 284 ft 15 kts 245°
2026-04-21 15:57 13.48200 144.78806 283 ft 14 kts 243°
2026-04-21 15:57 13.48158 144.78716 283 ft 14 kts 247°
2026-04-21 15:58 13.48117 144.78625 282 ft 18 kts 244°
2026-04-21 15:58 13.48052 144.78485 280 ft 23 kts 244°
2026-04-21 15:58 13.47986 144.78337 279 ft 21 kts 244°
2026-04-21 15:58 13.47937 144.78230 278 ft 16 kts 245°
2026-04-21 15:59 13.47887 144.78147 276 ft 12 kts 215°
2026-04-21 15:59 13.47794 144.78169 265 ft 15 kts 100°
2026-04-21 15:59 13.47899 144.78410 267 ft 70 kts 65°
2026-04-21 15:59 13.48205 144.79079 275 ft 134 kts 65°
2026-04-21 16:00 13.48676 144.80098 458 ft 172 kts 65°
2026-04-21 16:00 13.49193 144.81186 1405 ft 168 kts 63°
2026-04-21 16:00 13.49751 144.82281 2065 ft 185 kts 63°
2026-04-21 16:00 13.50420 144.83523 2324 ft 213 kts 56°
2026-04-21 16:01 13.51621 144.84496 2731 ft 233 kts 24°
2026-04-21 16:01 13.53319 144.84760 3055 ft 260 kts
2026-04-21 16:01 13.55167 144.84710 3761 ft 269 kts
2026-04-21 16:01 13.57011 144.84343 4789 ft 275 kts 338°
2026-04-21 16:02 13.58546 144.83159 5678 ft 281 kts 310°
2026-04-21 16:02 13.59449 144.81360 6343 ft 292 kts 284°
2026-04-21 16:02 13.59499 144.79283 7169 ft 292 kts 256°
2026-04-21 16:02 13.58740 144.77384 8137 ft 287 kts 239°
2026-04-21 16:03 13.57740 144.75584 8915 ft 292 kts 238°
2026-04-21 16:03 13.56703 144.73785 9791 ft 293 kts 238°
2026-04-21 16:03 13.55649 144.71978 10440 ft 301 kts 236°
2026-04-21 16:03 13.54524 144.70061 10622 ft 326 kts 237°
2026-04-21 16:04 13.53323 144.68035 10888 ft 344 kts 237°
2026-04-21 16:04 13.52094 144.65895 11462 ft 351 kts 240°
2026-04-21 16:04 13.50899 144.63693 12130 ft 355 kts 239°
2026-04-21 16:04 13.49733 144.61442 12814 ft 359 kts 243°
2026-04-21 16:05 13.48723 144.59080 13467 ft 364 kts 248°
2026-04-21 16:05 13.47920 144.56606 14108 ft 367 kts 253°
2026-04-21 16:05 13.47301 144.54048 14673 ft 371 kts 257°
2026-04-21 16:05 13.46821 144.51433 15279 ft 374 kts 259°
2026-04-21 16:06 13.46435 144.48775 15872 ft 377 kts 262°
2026-04-21 16:06 13.46110 144.46096 16490 ft 380 kts 263°
2026-04-21 16:06 13.45819 144.43390 17069 ft 382 kts 264°
2026-04-21 16:06 13.45546 144.40665 17643 ft 385 kts 264°
2026-04-21 16:07 13.45282 144.37917 18207 ft 388 kts 264°
2026-04-21 16:07 13.45019 144.35146 18696 ft 391 kts 264°
2026-04-21 16:07 13.44756 144.32357 19180 ft 393 kts 265°
2026-04-21 16:07 13.44491 144.29552 19657 ft 396 kts 265°
2026-04-21 16:08 13.43954 144.23888 20626 ft 400 kts 265°
2026-04-21 16:08 13.43684 144.21040 21110 ft 402 kts 265°
2026-04-21 16:08 13.43410 144.18165 21530 ft 406 kts 265°
2026-04-21 16:09 13.43133 144.15264 21902 ft 411 kts 265°
2026-04-21 16:09 13.42854 144.12343 22394 ft 411 kts 265°
2026-04-21 16:09 13.42574 144.09419 22877 ft 413 kts 265°
2026-04-21 16:09 13.42291 144.06476 23281 ft 416 kts 265°
2026-04-21 16:10 13.42007 144.03513 23651 ft 418 kts 265°
2026-04-21 16:10 13.41720 144.00527 23987 ft 420 kts 265°
2026-04-21 16:10 13.41432 143.97539 24368 ft 422 kts 265°
2026-04-21 16:10 13.41143 143.94539 24727 ft 424 kts 265°
2026-04-21 16:11 13.40855 143.91551 24997 ft 427 kts 265°
2026-04-21 16:11 13.40561 143.88507 25300 ft 430 kts 265°
2026-04-21 16:11 13.40265 143.85444 25638 ft 432 kts 265°
2026-04-21 16:11 13.39967 143.82369 25982 ft 433 kts 265°
2026-04-21 16:12 13.39668 143.79285 26286 ft 436 kts 265°
2026-04-21 16:12 13.39367 143.76183 26589 ft 438 kts 265°
2026-04-21 16:12 13.39063 143.73058 26889 ft 440 kts 264°
2026-04-21 16:12 13.38758 143.69926 27185 ft 442 kts 265°
2026-04-21 16:13 13.38451 143.66771 27455 ft 445 kts 265°
2026-04-21 16:13 13.38142 143.63608 27763 ft 447 kts 265°
2026-04-21 16:13 13.37831 143.60422 28039 ft 449 kts 265°
2026-04-21 16:13 13.37518 143.57227 28340 ft 450 kts 265°
2026-04-21 16:14 13.37204 143.54025 28632 ft 452 kts 265°
2026-04-21 16:14 13.36888 143.50805 28863 ft 455 kts 265°
2026-04-21 16:14 13.36570 143.47563 29114 ft 457 kts 265°
2026-04-21 16:14 13.36250 143.44315 29396 ft 458 kts 265°
2026-04-21 16:15 13.35928 143.41050 29648 ft 460 kts 265°
2026-04-21 16:15 13.35605 143.37772 29866 ft 463 kts 265°
2026-04-21 16:15 13.35279 143.34474 30068 ft 465 kts 265°
2026-04-21 16:15 13.34952 143.31167 30289 ft 466 kts 265°
2026-04-21 16:16 13.34624 143.27853 30509 ft 467 kts 265°
2026-04-21 16:16 13.34295 143.24527 30698 ft 469 kts 265°
2026-04-21 16:16 13.33963 143.21187 30907 ft 470 kts 265°
2026-04-21 16:16 13.33631 143.17851 31190 ft 470 kts 265°
2026-04-21 16:17 13.33299 143.14515 31497 ft 469 kts 265°
2026-04-21 16:17 13.32972 143.11232 31776 ft 469 kts 265°
2026-04-21 16:17 13.32635 143.07861 32037 ft 469 kts 264°
2026-04-21 16:17 13.32302 143.04530 32295 ft 469 kts 265°
2026-04-21 16:18 13.31973 143.01241 32571 ft 469 kts 264°
2026-04-21 16:18 13.31639 142.97914 32884 ft 468 kts 265°
2026-04-21 16:18 13.31305 142.94589 33158 ft 468 kts 265°
2026-04-21 16:18 13.30971 142.91261 33395 ft 470 kts 265°
2026-04-21 16:19 13.30635 142.87921 33711 ft 468 kts 264°
2026-04-21 16:19 13.30300 142.84602 34054 ft 466 kts 265°
2026-04-21 16:19 13.29966 142.81287 34294 ft 467 kts 265°
2026-04-21 16:19 13.29631 142.77975 34509 ft 467 kts 265°
2026-04-21 16:20 13.29297 142.74666 34868 ft 463 kts 264°
2026-04-21 16:20 13.28964 142.71386 35230 ft 460 kts 264°
2026-04-21 16:20 13.28633 142.68124 35488 ft 460 kts 264°
2026-04-21 16:20 13.28301 142.64854 35657 ft 461 kts 264°
2026-04-21 16:21 13.27969 142.61586 35923 ft 459 kts 264°
2026-04-21 16:21 13.27307 142.55083 35940 ft 457 kts 264°
2026-04-21 16:22 13.26642 142.48573 35938 ft 460 kts 264°
2026-04-21 16:22 13.25972 142.42034 35941 ft 462 kts 264°
2026-04-21 16:23 13.25297 142.35455 35944 ft 464 kts 264°
2026-04-21 16:23 13.24618 142.28860 35937 ft 465 kts 264°
2026-04-21 16:24 13.23937 142.22260 35934 ft 465 kts 264°
2026-04-21 16:24 13.23256 142.15669 35926 ft 464 kts 264°
2026-04-21 16:25 13.22573 142.09091 35930 ft 463 kts 264°
2026-04-21 16:25 13.21891 142.02531 35926 ft 462 kts 264°
2026-04-21 16:26 13.21210 141.95990 35934 ft 460 kts 264°
2026-04-21 16:26 13.20528 141.89469 35927 ft 459 kts 264°
2026-04-21 16:27 13.19851 141.83005 35935 ft 458 kts 264°
2026-04-21 16:27 13.19169 141.76510 35929 ft 458 kts 264°
2026-04-21 16:28 13.18487 141.70025 35934 ft 457 kts 264°
2026-04-21 16:28 13.17802 141.63536 35928 ft 457 kts 264°
2026-04-21 16:29 13.17232 141.58147 35941 ft 457 kts 264°
2026-04-21 16:29 13.16428 141.50556 35929 ft 458 kts 264°
2026-04-21 16:30 13.15737 141.44055 35937 ft 458 kts 264°
2026-04-21 16:30 13.15044 141.37548 35934 ft 459 kts 264°
2026-04-21 16:31 13.14348 141.31032 35945 ft 460 kts 264°